Location: Eymir
(36.7333°N, 29.7833°E)
Time: 22:44:51
(UTC+00:00)

IRS-1D - Visible Passes

Search period start: 18 April 2026 00:00
Search period end: 28 April 2026 00:00
Orbit: 736 x 811 km, 98.8° (Epoch: 18 April)

Date Brightness Start Highest point End Pass type
(mag) Time Alt. Az. Time Alt. Az. Time Alt. Az.
19 Apr 4.9 02:49:22 10° NNE 02:54:13 43° E 02:59:09 10° S visible
20 Apr 6.2 02:16:00 10° NE 02:19:40 20° E 02:23:23 10° SE visible
22 Apr 5.1 02:45:26 10° NNE 02:50:14 39° E 02:55:05 10° SSE visible
23 Apr 6.3 02:12:13 10° NE 02:15:40 18° E 02:19:08 10° SE visible
25 Apr 5.3 02:41:31 10° NNE 02:46:14 35° E 02:51:01 10° SSE visible
26 Apr 6.3 02:08:28 10° NE 02:11:39 16° E 02:14:51 10° SE visible
